STARLINK-34819, 65040

Orbit data source: Space-Track

STARLINK-34819, 65040 is a payload satellite owned by SpaceX/Seattle (US) in LEO that was launched on Wed, 30 Jul 2025 UTC via an FALCON 9 launch vehicle from the Air Force Eastern Test Range (AFETR). Payload-class satellites include a variety of spacecraft equipped with specific instruments for various scientific and technological missions. These include communications satellites like Starlink; space stations such as the ISS; scientific satellites like the Hubble; Earth observation satellites from companies like Planet Labs, Umbra, and HawkEye 360; GPS; miniature CubeSats for education and research; and military/defense satellites.

Loading next visibility...
Identifier
65040, 2025-161AB
Orbit
LEO
Country
Flag of USUS
Related business
Manufacturer
SpaceX/Seattle
Mission
Operational Commercial Communications
Bus & Motor
STARLINK V2MO, Unknown motor
Mass
575 kg wet, ~530 kg dry
Launch date (UTC)
2025-07-30 (11 months ago)
Launch vehicle
FALCON 9
Launch site
Air Force Eastern Test Range (AFETR)
Object type
Payload
Rocket body
Debris
Shape & HBR
Box + 2 Pan, 17.7 m
Radar Cross Section
36.964 m², Large (>1 m²)

Expand to show TLE details & history
Last TLE update: 13 hours ago

TLE from 13 hours ago
0 STARLINK-34819
1 65040U 25161AB  26171.29195861  .00011853  00000-0  41141-3 0  9990
2 65040  53.1587 177.9765 0001080  82.4877 277.6246 15.30221082 49936
Epoch: 2026-06-20T07:00Z
TLE epoch observation values (Epoch: 2026-06-20T07:00:25.223Z)
Latitude
-0.00008°
Longitude
164.36267°
Altitude
475.954 km
Speed
7.629 km/s
True Right ascension
11h 51m 54s
True Declination
0° 00' 00"
Sunlit
Object was in daylight at epoch
Visualization orbit readout
Latitude
Unknown
Longitude
Unknown
Altitude
Unknown
Speed
Unknown
Apparent Right ascension
Unknown
Apparent Declination
Unknown
Sunlit
N/A
Visualization observer readout
Local Sidereal Time
07:18:32
Azimuth
Unknown
Elevation
Unknown
Doppler factor
Unknown
Orbital elements
Apogee altitude
476.149 km
Perigee altitude
474.669 km
Semi-major axis
6,853.546 km
Eccentricity
0.00011
Inclination
53.1587°
RAAN
177.9765°
Arg. of periapsis
82.4877°
True anomaly
277.61233°
Mean anomaly
277.6246°
Eccentric anomaly
277.61847°
Mean motion
3.82534 °/min
Orbital period
94.11 mins
BSTAR
0.00041141
Loading maneuver chart data...
Computing Atmospheric mass density...
Loading historical data...
Loading historical data...
Loading historical data...
Loading historical data...
Loading historical data...
Loading historical data...
Loading historical data...

Documentation

Showing up to 5 results
|